User: anonymous   Login
Location: Unspecified
(0.0000°N, 0.0000°E)
Time: 00:02:53
(UTC+02:00)
Language:

Cosmos 2251 - Orbit

View from above orbital plane
View from above orbital plane
View from above satellite
View from above satellite

Ground track
Ground track

The orbit data is extracted from the following two-line orbital elements,

1 22675U 93036A   14298.16613955  .00000154  00000-0  66426-4 0  3894
2 22675 074.0397 178.9660 0024868 175.5929 298.3044 14.32354869115717
Epoch (UTC): 25 October 2014 03:59:14
Eccentricity: 0.0024868
inclination: 74.0397°
perigee height: 766 km
apogee height: 801 km
right ascension of ascending node: 178.9660°
argument of perigee: 175.5929°
revolutions per day: 14.32354869
mean anomaly at epoch: 298.3044°
orbit number at epoch: 11571

The dashed part of the orbit path shows where the satellite is in the earth's shadow,  

DLR